This is the latest recevied weather packets stored in our database for station/object CX5ACA-13. If no packets are shown the sender has not sent any weather packets the latest 10 day(s).
| Time | Temp. | Humidity | Pressure | Rain* | Wind** | Luminosity | Snow |
|---|---|---|---|---|---|---|---|
| 1777643050 | 18.33° C | 78% | 1012.5 hPa | 0 mm | - | 73 W/m² | - |
| 1777642746 | 18.33° C | 78% | 1012.4 hPa | 0 mm | - | 69 W/m² | - |
| 1777642443 | 18.33° C | 77% | 1012.6 hPa | 0 mm | - | 62 W/m² | - |
| 1777642140 | 18.33° C | 78% | 1012.6 hPa | 0 mm | - | 73 W/m² | - |
| 1777641836 | 17.78° C | 78% | 1012.7 hPa | 0 mm | - | 73 W/m² | - |
| 1777641532 | 17.78° C | 78% | 1012.5 hPa | 0 mm | - | 84 W/m² | - |
| 1777641226 | 17.78° C | 78% | 1012.6 hPa | 0 mm | - | 70 W/m² | - |
| 1777640924 | 17.78° C | 78% | 1012.9 hPa | 0 mm | - | 50 W/m² | - |
| 1777640620 | 17.78° C | 78% | 1012.7 hPa | 0 mm | - | 64 W/m² | - |
| 1777640316 | 17.78° C | 78% | 1012.6 hPa | 0 mm | - | 72 W/m² | - |
| 1777640013 | 17.78° C | 78% | 1012.6 hPa | 0 mm | - | 70 W/m² | - |
| 1777639710 | 17.78° C | 77% | 1012.7 hPa | 0 mm | - | 72 W/m² | - |
| 1777639409 | 17.78° C | 78% | 1012.6 hPa | 0 mm | - | 84 W/m² | - |
| 1777639108 | 17.78° C | 77% | 1012.4 hPa | 0 mm | - | 75 W/m² | - |
| 1777638806 | 17.78° C | 77% | 1012.3 hPa | 0 mm | - | 71 W/m² | - |
| 1777638506 | 17.78° C | 78% | 1012.4 hPa | 0 mm | - | 80 W/m² | - |
| 1777638204 | 17.78° C | 77% | 1012.5 hPa | 0 mm | - | 78 W/m² | - |
| 1777637899 | 17.78° C | 77% | 1012.4 hPa | 0 mm | - | 76 W/m² | - |
| 1777637596 | 17.78° C | 77% | 1012.4 hPa | 0 mm | - | 74 W/m² | - |
| 1777637293 | 17.78° C | 77% | 1012.4 hPa | 0 mm | - | 66 W/m² | - |
| 1777636990 | 17.78° C | 77% | 1012.5 hPa | 0 mm | - | 63 W/m² | - |
| 1777636685 | 17.78° C | 78% | 1012.5 hPa | 0 mm | - | 58 W/m² | - |
| 1777636382 | 17.22° C | 78% | 1012.6 hPa | 0 mm | - | 62 W/m² | - |
| 1777636082 | 17.22° C | 78% | 1012.6 hPa | 0 mm | - | 75 W/m² | - |
| 1777635778 | 17.22° C | 79% | 1012.6 hPa | 0 mm | - | 77 W/m² | - |
* Rain latest hour (hover to see other rain measurements)
** Current wind speed in m/s (hover to see current wind gust speed)